[[{"header":{"parameterUnit":"m.s-1","parameterCategory":1,"la1":30.2991,"la2":30.254,"lo1":-89.0895,"lo2":-89.0444,"dy":0.0017,"dx":0.0017,"nx":28,"ny":28,"refTime":"2024-08-29T09:00:00:Z","depth":0,"parameterNumber":2,"parameterNumberName":"U-component_of_WINDS"},"data":[0,0,0,0,0,0,0,0,0,0,0,0,0,0,0,0,0,0,0,0,0,0,0,0,0,0,0,0,0,0,0,0,0,0,0,0,0,0,0,0,0,0,0,0,0,0,0,0,0,0,0,0,0,0,0,0,0,0,-3.4784,-3.4783,0,-3.4686,-3.4685,-3.4684,-3.4562,-3.456,-3.4558,-3.4556,-3.4454,-3.4453,-3.4453,0,0,0,0,0,0,0,0,0,0,0,0,0,-3.4863,-3.4862,-3.4784,-3.4783,-3.4781,-3.4686,-3.4685,-3.4684,-3.4562,-3.456,-3.4558,-3.4555,-3.4455,-3.4454,-3.4452,0,0,0,0,0,0,0,0,0,0,0,0,0,-3.4803,-3.4862,-3.4784,-3.4709,-3.4702,-3.4686,-3.4685,-3.4683,-3.4563,-3.456,-3.4557,-3.4554,-3.4455,-3.4454,-3.4452,-3.4502,0,0,-3.4448,-3.4447,0,0,0,0,0,0,0,0,-3.4807,-3.48,-3.4722,-3.4715,-3.4706,-3.4633,-3.4675,-3.4622,-3.4564,-3.4616,-3.4556,-3.4553,-3.4516,-3.451,-3.4497,-3.4497,-3.4493,-3.4448,-3.4447,-3.4447,-3.4446,0,0,0,0,0,0,0,-3.4811,-3.4804,-3.4745,-3.4721,-3.4711,-3.468,-3.4668,-3.4665,-3.4583,-3.4611,-3.4602,-3.4592,-3.4511,-3.4499,-3.4494,-3.4491,-3.4448,-3.4447,-3.4446,-3.4445,-3.4523,-3.4526,0,0,0,0,0,0,-3.4827,-3.4808,-3.4748,-3.4742,-3.475,-3.4681,-3.4668,-3.466,-3.4583,-3.4568,-3.4595,-3.4587,-3.4503,-3.4496,-3.449,-3.4541,-3.4447,-3.4445,-3.4444,-3.4521,-3.4524,-3.4527,0,0,0,0,0,0,-3.4829,-3.4822,-3.4752,-3.4773,-3.4761,-3.4683,-3.4674,-3.4659,-3.4647,-3.4571,-3.4555,-3.4597,-3.45,-3.4492,-3.4499,-3.4536,-3.4445,-3.4443,-3.4517,-3.4522,-3.4526,-3.4645,0,0,0,0,0,0,-3.4832,-3.4824,-3.4843,-3.4774,-3.4761,-3.4764,-3.4677,-3.4659,-3.4645,-3.4634,-3.4569,-3.4556,-3.4497,-3.4502,-3.4498,-3.4532,-3.4442,-3.4513,-3.4519,-3.4524,-3.4638,-3.4653,-3.4666,0,0,0,0,0,-3.4835,-3.488,-3.4844,-3.4838,-3.4783,-3.4767,-3.4759,-3.4692,-3.4649,-3.4666,-3.4617,-3.4558,-3.4533,-3.4504,-3.4498,-3.4533,-3.4511,-3.4518,-3.4524,-3.4631,-3.465,-3.4666,0,0,0,0,0,0,-3.4955,-3.487,-3.4829,-3.4854,-3.4818,-3.4746,-3.4766,-3.4714,-3.469,-3.468,-3.4597,-3.4583,-3.46,-3.4567,-3.4536,-3.4575,-3.4513,-3.4519,-3.4596,-3.4614,-3.4628,-3.4635,-3.4441,0,0,0,0,0,-3.4984,-3.4979,-3.4905,-3.4934,-3.4918,-3.4846,-3.4836,-3.4788,-3.4747,-3.4731,-3.4683,-3.4645,-3.4628,-3.4619,-3.46,-3.4632,-3.4615,-3.4653,-3.4668,-3.468,-3.4685,-3.4698,-3.4713,-3.4549,-3.4549,-3.4548,0,0,-3.5045,-3.4998,-3.5,-3.4957,-3.4924,-3.4919,-3.4834,-3.4833,-3.4829,-3.4731,-3.4735,-3.4698,-3.465,-3.467,-3.4676,-3.4643,-3.4727,-3.4688,-3.4698,-3.4697,-3.4706,-3.4722,-3.4736,-3.4553,-3.4552,-3.4552,0,0,-3.5153,-3.5118,-3.5137,-3.5105,-3.5056,-3.5007,-3.5013,-3.4948,-3.492,-3.4922,-3.4848,-3.4841,-3.4815,-3.4783,-3.4764,-3.4859,-3.4803,-3.4855,-3.493,-3.4943,-3.4956,-3.4967,-3.4999,-3.5012,-3.4861,-3.4862,-3.4862,0,-3.5234,-3.5225,-3.5153,-3.5157,-3.5139,-3.5051,-3.507,-3.5042,-3.499,-3.4979,-3.4943,-3.4907,-3.4869,-3.4879,-3.4902,-3.489,-3.4891,-3.4862,-3.496,-3.4971,-3.498,-3.501,-3.5022,-3.4868,-3.4867,-3.4867,-3.4866,0,-3.5327,-3.5322,-3.5343,-3.5295,-3.528,-3.5291,-3.5219,-3.5213,-3.5165,-3.512,-3.5123,-3.5074,-3.5042,-3.5041,-3.4995,-3.5044,-3.5025,-3.4976,-3.4911,-3.5003,-3.503,-3.5041,-3.4877,-3.4875,-3.4873,-3.4872,0,0,-3.5508,-3.5419,-3.5428,-3.5404,-3.5343,-3.5337,-3.5343,-3.5313,-3.5308,-3.5274,-3.5276,-3.5256,-3.521,-3.5188,-3.5137,-3.5149,-3.5225,-3.5097,-3.5095,-3.5122,-3.5274,-3.5311,-3.5325,-3.5188,-3.519,-3.5191,-3.5278,0,-3.5603,-3.561,-3.5545,-3.5569,-3.5562,-3.5478,-3.5483,-3.5445,-3.5403,-3.539,-3.5343,-3.5329,-3.527,-3.5256,-3.5264,-3.5214,-3.5254,-3.5207,-3.5187,-3.5187,-3.5201,-3.5339,-3.5378,-3.5462,-3.5288,-3.5289,-3.5291,0,-3.5716,-3.5688,-3.5712,-3.5648,-3.5643,-3.5649,-3.5615,-3.5605,-3.556,-3.5528,-3.5504,-3.5445,-3.5445,-3.5385,-3.5382,-3.5352,-3.534,-3.5314,-3.5315,-3.531,-3.5244,-3.5337,-3.5488,-3.55,-3.5307,-3.5305,-3.5304,0,-3.5844,-3.5813,-3.5822,-3.5805,-3.5731,-3.5737,-3.5707,-3.5659,-3.5645,-3.5615,-3.5604,-3.5574,-3.5558,-3.5536,-3.547,-3.5432,-3.5475,-3.5409,-3.5447,-3.5449,-3.5459,-3.5459,-3.561,-3.5454,-3.5454,-3.5453,-3.5453,0,-3.5957,-3.5974,-3.5879,-3.5885,-3.5901,-3.5825,-3.5843,-3.5804,-3.5762,-3.5758,-3.5683,-3.568,-3.5594,-3.5581,-3.553,-3.5535,-3.5528,-3.5501,-3.5487,-3.5508,-3.5511,-3.5498,-3.549,-3.5457,-3.5456,-3.5455,-3.5455,0,-3.6102,-3.6039,-3.6044,-3.5974,-3.5957,-3.5972,-3.5911,-3.5913,-3.5866,-3.5861,-3.5855,-3.5781,-3.5762,-3.5694,-3.5658,-3.5624,-3.5644,-3.5618,-3.566,-3.5651,-3.5691,-3.5688,-3.5838,-3.5853,-3.5689,-3.5691,-3.5692,0,-3.6178,-3.6189,-3.6121,-3.6113,-3.6086,-3.6074,-3.6059,-3.5984,-3.5971,-3.592,-3.5928,-3.5903,-3.5878,-3.5851,-3.5793,-3.5765,-3.5736,-3.5791,-3.5731,-3.5751,-3.5735,-3.5735,-3.5735,-3.5803,-3.5806,-3.5807,-3.5809,0,-3.6319,-3.6287,-3.6268,-3.6239,-3.6223,-3.6195,-3.6164,-3.6161,-3.6078,-3.6067,-3.6046,-3.6028,-3.5991,-3.5966,-3.5928,-3.5895,-3.5838,-3.5828,-3.5835,-3.5855,-3.5878,-3.5865,-3.5693,-3.5825,-3.5823,-3.5822,-3.5821,-3.582,-3.6431,-3.6436,-3.6389,-3.637,-3.6338,-3.631,-3.6308,-3.626,-3.6243,-3.6207,-3.6164,-3.6149,-3.6101,-3.6044,-3.6015,-3.6001,-3.597,-3.598,-3.5983,-3.5986,-3.5995,-3.5882,-3.5994,-3.5993,-3.5993,-3.5992,-3.5992,0,-3.6567,-3.6532,-3.6515,-3.6473,-3.6458,-3.6407,-3.6368,-3.6359,-3.6347,-3.6308,-3.6286,-3.6261,-3.6237,-3.6177,-3.6146,-3.6146,-3.6118,-3.614,-3.6139,-3.6131,-3.6026,-3.6022,-3.6162,-3.6162,-3.6162,-3.6162,-3.6162,-3.6162,-3.6636,-3.6642,-3.6604,-3.6593,-3.6557,-3.6543,-3.6525,-3.6498,-3.6466,-3.6443,-3.6423,-3.6384,-3.6336,-3.63,-3.6275,-3.6257,-3.6249,-3.6279,-3.6253,-3.6155,-3.6139,-3.6124,-3.612,-3.6278,-3.6278,-3.636,-3.636,-3.6361]},{"header":{"parameterUnit":"m.s-1","parameterCategory":1,"la1":30.2991,"la2":30.254,"lo1":-89.0895,"lo2":-89.0444,"dy":0.0017,"dx":0.0017,"nx":28,"ny":28,"refTime":"2024-08-29T09:00:00:Z","depth":0,"parameterNumber":3,"parameterNumberName":"V-component_of_WINDS"},"data":[0,0,0,0,0,0,0,0,0,0,0,0,0,0,0,0,0,0,0,0,0,0,0,0,0,0,0,0,0,0,0,0,0,0,0,0,0,0,0,0,0,0,0,0,0,0,0,0,0,0,0,0,0,0,0,0,0,0,2.9293,2.9292,0,2.927,2.927,2.9269,2.9198,2.9197,2.9195,2.9193,2.9172,2.9173,2.9174,0,0,0,0,0,0,0,0,0,0,0,0,0,2.9276,2.9277,2.9293,2.9292,2.9292,2.927,2.927,2.9269,2.9198,2.9196,2.9195,2.9193,2.9172,2.9173,2.9174,0,0,0,0,0,0,0,0,0,0,0,0,0,2.9271,2.9277,2.9293,2.9254,2.925,2.927,2.927,2.9269,2.9199,2.9196,2.9194,2.9192,2.9171,2.9173,2.9174,2.923,0,0,2.9178,2.9179,0,0,0,0,0,0,0,0,2.9272,2.9272,2.926,2.9257,2.9253,2.9234,2.9256,2.9256,2.9199,2.9218,2.9193,2.9191,2.9195,2.9194,2.9195,2.9229,2.9228,2.9178,2.9179,2.918,2.918,0,0,0,0,0,0,0,2.9272,2.9273,2.9284,2.926,2.9255,2.9238,2.9235,2.9256,2.922,2.9217,2.9211,2.921,2.9192,2.9194,2.9194,2.9228,2.9178,2.9179,2.918,2.9181,2.9307,2.9309,0,0,0,0,0,0,2.9278,2.9273,2.9284,2.9283,2.9256,2.924,2.9237,2.9243,2.922,2.9214,2.9212,2.9206,2.9193,2.9192,2.9193,2.9257,2.9179,2.9181,2.9182,2.9304,2.9307,2.931,0,0,0,0,0,0,2.9278,2.9279,2.9285,2.9277,2.9276,2.9243,2.9251,2.9244,2.9245,2.9216,2.921,2.922,2.9191,2.9191,2.9221,2.9256,2.9181,2.9183,2.9301,2.9305,2.9309,2.9386,0,0,0,0,0,0,2.9278,2.928,2.93,2.9278,2.9277,2.9314,2.9253,2.9245,2.9247,2.924,2.9222,2.9217,2.9189,2.922,2.9223,2.9256,2.9184,2.9298,2.9303,2.9307,2.9381,2.9392,2.9403,0,0,0,0,0,2.9277,2.9324,2.9302,2.9304,2.9302,2.9316,2.9315,2.9282,2.925,2.9271,2.9252,2.9217,2.9251,2.9223,2.9226,2.926,2.9296,2.9301,2.9307,2.9376,2.939,2.9402,0,0,0,0,0,0,2.9352,2.932,2.9295,2.9336,2.9329,2.9304,2.9329,2.9299,2.9301,2.9294,2.9254,2.925,2.9286,2.9276,2.9246,2.9314,2.9268,2.9274,2.9319,2.9332,2.9343,2.9345,2.9185,0,0,0,0,0,2.9373,2.9386,2.9358,2.9396,2.9394,2.9362,2.9367,2.9342,2.9334,2.9331,2.9314,2.9308,2.9317,2.9324,2.9331,2.9379,2.9374,2.9404,2.9415,2.9424,2.943,2.9455,2.9468,2.9329,2.9329,2.9328,0,0,2.9417,2.9401,2.9412,2.9411,2.9403,2.9418,2.936,2.9379,2.939,2.9334,2.9361,2.9349,2.9339,2.9379,2.9395,2.9371,2.9468,2.9431,2.9439,2.944,2.9463,2.9476,2.9488,2.9332,2.9332,2.9331,0,0,2.9504,2.9493,2.9524,2.9517,2.9505,2.9484,2.9492,2.9471,2.9461,2.9487,2.9445,2.9458,2.9475,2.947,2.9469,2.9555,2.9523,2.9559,2.9616,2.9641,2.9652,2.9662,2.9693,2.9705,2.9565,2.9565,2.9565,0,2.956,2.9581,2.9544,2.9566,2.9567,2.9516,2.9547,2.9542,2.9534,2.9536,2.9509,2.9529,2.9519,2.9556,2.9577,2.9579,2.9587,2.9561,2.9653,2.9663,2.9671,2.9701,2.9713,2.957,2.9569,2.9569,2.9568,0,2.9651,2.9667,2.9693,2.9686,2.9689,2.9716,2.9683,2.9692,2.9667,2.9648,2.9677,2.9662,2.9666,2.9673,2.9648,2.9707,2.9693,2.9661,2.9614,2.969,2.9717,2.9728,2.9576,2.9574,2.9573,2.9572,0,0,2.9786,2.9757,2.9768,2.9764,2.9747,2.9758,2.9783,2.9785,2.9794,2.979,2.9809,2.9825,2.9795,2.9794,2.9769,2.9791,2.9861,2.9755,2.9755,2.9776,2.9926,2.9951,2.9965,2.9839,2.9841,2.9843,2.9927,0,2.9869,2.9909,2.9876,2.9922,2.9936,2.9887,2.9909,2.9901,2.9885,2.9895,2.9876,2.9888,2.9847,2.9847,2.9866,2.9848,2.989,2.9841,2.9858,2.9859,2.9863,2.9979,3.0005,3.0085,2.9937,2.9939,2.994,0,2.9972,2.9972,3.002,3.0,3.0005,3.0024,3.0024,3.0034,3.0025,3.0011,3.0011,2.998,3.0003,2.9956,2.9988,2.9956,2.996,2.9953,2.9955,2.9956,2.9905,2.9984,3.011,3.0123,2.9956,2.9955,2.9954,0,3.0067,3.0078,3.0108,3.0106,3.0084,3.0099,3.0091,3.0079,3.0083,3.0083,3.0085,3.0088,3.009,3.0094,3.0064,3.0033,3.01,3.0051,3.0091,3.0092,3.0108,3.0107,3.0238,3.011,3.0109,3.0109,3.0109,0,3.0164,3.0195,3.015,3.0169,3.0202,3.0164,3.0199,3.0185,3.0175,3.0191,3.0149,3.0165,3.0124,3.0136,3.0113,3.0144,3.0145,3.0135,3.0129,3.0139,3.0141,3.0142,3.0136,3.0112,3.0112,3.0111,3.011,0,3.0275,3.0246,3.0276,3.0252,3.0247,3.0273,3.0253,3.0269,3.025,3.027,3.0273,3.0243,3.0254,3.0225,3.0232,3.0217,3.0261,3.0245,3.0264,3.0259,3.0301,3.0298,3.0438,3.0455,3.0315,3.0316,3.0318,0,3.034,3.0362,3.0341,3.0348,3.0342,3.0354,3.0357,3.0321,3.0327,3.0318,3.0336,3.0344,3.0348,3.0369,3.0348,3.0354,3.0338,3.0387,3.0339,3.0349,3.034,3.034,3.0342,3.0397,3.0399,3.04,3.0402,0,3.0457,3.0442,3.0448,3.045,3.0456,3.0456,3.0453,3.0461,3.0422,3.0431,3.0442,3.0445,3.0453,3.0461,3.0462,3.0454,3.0422,3.0417,3.0426,3.0438,3.0448,3.0444,3.0292,3.0414,3.0413,3.0412,3.0411,3.0411,3.0548,3.0566,3.0554,3.0562,3.0556,3.0554,3.0569,3.0551,3.0559,3.0562,3.054,3.0556,3.0547,3.0544,3.0539,3.0552,3.053,3.0543,3.0547,3.0551,3.0559,3.0445,3.0552,3.0551,3.0551,3.0551,3.055,0,3.0664,3.0654,3.0662,3.0659,3.0666,3.0634,3.0629,3.0638,3.0652,3.0645,3.0651,3.0664,3.0672,3.0652,3.0657,3.0671,3.0657,3.0674,3.0673,3.0672,3.0578,3.0569,3.0686,3.0686,3.0686,3.0686,3.0686,3.0686,3.0725,3.0754,3.0738,3.0764,3.0753,3.0768,3.0768,3.0766,3.0761,3.0777,3.0784,3.077,3.0758,3.0763,3.0769,3.0763,3.0767,3.079,3.0779,3.0692,3.0678,3.0666,3.0658,3.0791,3.0791,3.0873,3.0873,3.0874]}]]